Location: Valley of Enchantment
(34.2467°N, 117.3048°W)
Time: 14:38:45
(UTC+00:00)

Cosmos 2219 Rocket - Pass Details

Date: 10 September 2024
Orbit: 827 x 845 km, 71.0° (Epoch: 10 October)

Event Time Altitude Azimuth Distance (km) Brightness Sun altitude
Rises 12:15:49 0° 342° (NNW) 3,395 5.3 -15.7°
Reaches altitude 10° 12:18:18 10° 346° (NNW) 2,454 4.6 -15.2°
Maximum altitude 12:23:52 63° 67° (ENE) 928 2.7 -14.1°
Drops below altitude 10° 12:29:23 10° 149° (SSE) 2,429 4.8 -13.0°
Sets 12:31:50 0° 152° (SSE) 3,356 5.5 -12.5°
